Showing default

AEROCUBE 7, 40966

Orbit data source: Space-Track

AEROCUBE 7, 40966 is a payload satellite owned by AERO (US) in LEO that was launched on Thu, 08 Oct 2015 UTC via an ATLAS V 401 launch vehicle from the Air Force Western Test Range (AFWTR). Payload-class satellites include a variety of spacecraft equipped with specific instruments for various scientific and technological missions. These include communications satellites like Starlink; space stations such as the ISS; scientific satellites like the Hubble; Earth observation satellites from companies like Planet Labs, Umbra, and HawkEye 360; GPS; miniature CubeSats for education and research; and military/defense satellites.

Loading next visibility...
Identifier
40966, 2015-058C
Orbit
LEO
Country
Flag of USUS
Related business
Manufacturer
AERO
Mission
Operational Defense Technology
Bus & Motor
CUBESAT 1.5U, Unknown motor
Mass
2 kg wet, 2 kg dry
Launch date (UTC)
2015-10-08 (10 years ago)
Launch vehicle
ATLAS V 401
Launch site
Air Force Western Test Range (AFWTR)
Object type
Payload
Rocket body
Debris
Shape & HBR
Box, 0.1 m
Radar Cross Section
0.025 m², Medium (>0.1 m² and < 1m²)

Expand to show TLE details & history
Last TLE update: 20 hours ago

TLE from 20 hours ago
0 AEROCUBE 7
1 40966U 15058C   25302.19551259  .00004958  00000-0  40911-3 0  9997
2 40966  64.7629 247.1247 0134429 152.4167 208.4165 14.93331406331431
Epoch: 2025-10-29T04:41Z
TLE epoch observation values (Epoch: 2025-10-29T04:41:32.287Z)
Latitude
-0.00007°
Longitude
138.96801°
Altitude
672.212 km
Speed
7.477 km/s
True Right ascension
16h 28m 29s
True Declination
0° 00' 00"
Sunlit
Object was in daylight at epoch
Visualization orbit readout
Latitude
Unknown
Longitude
Unknown
Altitude
Unknown
Speed
Unknown
Apparent Right ascension
Unknown
Apparent Declination
Unknown
Sunlit
N/A
Visualization observer readout
Local Sidereal Time
19:49:16
Azimuth
Unknown
Elevation
Unknown
Doppler factor
Unknown
Orbital elements
Apogee altitude
679.743 km
Perigee altitude
492.504 km
Semi-major axis
6,964.261 km
Eccentricity
0.01344
Inclination
64.7629°
RAAN
247.1247°
Arg. of periapsis
152.4167°
True anomaly
207.69414°
Mean anomaly
208.4165°
Eccentric anomaly
208.05426°
Mean motion
3.73448 °/min
Orbital period
96.4 mins
BSTAR
0.00040911
Loading maneuver chart data...
Computing Atmospheric mass density...
Loading historical data...
Loading historical data...
Loading historical data...
Loading historical data...
Loading historical data...
Loading historical data...
Loading historical data...

Documentation

Showing up to 5 results
|